AI4Y Weather Reports


Display with metric or nautical units.
time (UTC)temp
F
wind
direction
speed
MPH
gust
MPH
rain 1hr
in
rain 24hr
in
rain mn
in
humidity
%
barometer
mb
20260505022015 63 85 0.0 1.0 0.00 0.00 0.00 57 1013.6
20260505021016 64 152 0.0 2.0 0.00 0.00 0.00 55 1013.6
20260505020016 64 133 0.0 2.0 0.00 0.00 0.00 55 1013.6
20260505015036 64 130 1.0 3.0 0.00 0.00 0.00 55 1013.6
20260505014016 65 311 0.0 4.0 0.00 0.00 0.00 55 1013.6
20260505013017 65 129 0.0 2.0 0.00 0.00 0.00 55 1013.5
20260505012016 65 258 0.0 1.0 0.00 0.00 0.00 55 1013.3
20260505011017 66 153 1.0 3.0 0.00 0.00 0.00 54 1013.2
20260505010017 66 157 1.0 3.0 0.00 0.00 0.00 54 1013.1
20260505005017 66 185 0.0 2.0 0.00 0.00 0.00 54 1012.9
20260505004018 67 150 0.0 2.0 0.00 0.00 0.00 54 1012.8
20260505003037 68 193 0.0 2.0 0.00 0.00 0.00 54 1012.7
20260505002018 69 207 0.0 1.0 0.00 0.00 0.00 53 1012.6
20260505001017 70 136 0.0 2.0 0.00 0.00 0.00 52 1012.6
20260505000018 72 113 0.0 3.0 0.00 0.00 0.00 52 1012.5
20260504235018 74 109 0.0 2.0 0.00 0.00 0.00 50 1012.4
20260504234018 76 112 0.0 1.0 0.00 0.00 0.00 47 1012.3
20260504233018 77 114 0.0 3.0 0.00 0.00 0.00 44 1012.3
20260504232018 78 202 1.0 4.0 0.00 0.00 0.00 44 1012.2
20260504231038 78 190 1.0 3.0 0.00 0.00 0.00 44 1012.2
20260504230019 78 195 1.0 3.0 0.00 0.00 0.00 43 1012.2
20260504225016 78 241 1.0 4.0 0.00 0.00 0.00 44 1012.2
20260504224016 76 227 1.0 3.0 0.00 0.00 0.00 45 1012.2
20260504223016 76 194 1.0 2.0 0.00 0.00 0.00 47 1012.3
20260504222017 77 207 2.0 3.0 0.00 0.00 0.00 46 1012.4
20260504221016 78 208 2.0 4.0 0.00 0.00 0.00 45 1012.4
20260504220016 80 164 1.0 3.0 0.00 0.00 0.00 43 1012.5
20260504215016 81 185 2.0 4.0 0.00 0.00 0.00 42 1012.4
20260504214037 80 243 2.0 6.0 0.00 0.00 0.00 41 1012.4
20260504213017 78 186 2.0 5.0 0.00 0.00 0.00 43 1012.3
20260504212017 76 214 1.0 3.0 0.00 0.00 0.00 47 1012.4
20260504211017 77 217 2.0 4.0 0.00 0.00 0.00 45 1012.4
20260504210017 77 273 2.0 4.0 0.00 0.00 0.00 45 1012.3
20260504205020 78 261 2.0 3.0 0.00 0.00 0.00 43 1012.4
20260504204018 78 263 1.0 3.0 0.00 0.00 0.00 42 1012.5
20260504203018 78 217 1.0 3.0 0.00 0.00 0.00 42 1012.7
20260504202018 79 249 1.0 2.0 0.00 0.00 0.00 40 1012.7
20260504201018 77 230 2.0 4.0 0.00 0.00 0.00 42 1012.7
20260504200018 77 255 2.0 5.0 0.00 0.00 0.00 41 1012.8
20260504195015 76 266 1.0 3.0 0.00 0.00 0.00 43 1012.9
20260504194016 77 283 2.0 4.0 0.00 0.00 0.00 42 1013.2
20260504193015 76 295 2.0 6.0 0.00 0.00 0.00 42 1013.3
20260504192015 76 266 1.0 4.0 0.00 0.00 0.00 42 1013.4
20260504191016 74 249 2.0 5.0 0.00 0.00 0.00 43 1013.4
20260504190016 73 301 4.0 6.0 0.00 0.00 0.00 44 1013.5
20260504185016 72 294 3.0 6.0 0.00 0.00 0.00 44 1014.1
20260504184016 73 275 4.0 8.0 0.00 0.00 0.00 43 1014.0
20260504183016 73 279 4.0 8.0 0.00 0.00 0.00 43 1014.2
20260504182017 73 277 4.0 9.0 0.00 0.00 0.00 42 1014.3
20260504181017 75 254 4.0 8.0 0.00 0.00 0.00 42 1014.5
20260504180037 76 244 3.0 9.0 0.00 0.00 0.00 40 1014.3
20260504175017 77 268 3.0 7.0 0.00 0.00 0.00 40 1014.3
20260504174017 77 258 3.0 20.0 0.00 0.00 0.00 39 1014.2
20260504173017 76 291 4.0 8.0 0.00 0.00 0.00 40 1014.2
20260504172018 76 295 4.0 8.0 0.00 0.00 0.00 40 1014.5
20260504171018 76 205 3.0 7.0 0.00 0.00 0.00 42 1014.4
20260504151016 71 274 3.0 6.0 0.00 0.00 0.00 41 1016.1
20260504141017 68 288 3.0 8.0 0.00 0.00 0.00 42 1016.2
20260504081016 43 311 0.0 2.0 0.00 0.00 0.00 91 1016.5
20260504050017 46 295 1.0 2.0 0.00 0.00 0.00 80 1016.6
20260504045016 46 244 0.0 1.0 0.00 0.00 0.00 80 1016.3
20260504044017 45 142 1.0 4.0 0.00 0.00 0.00 83 1016.4
20260504043016 44 104 0.0 2.0 0.00 0.00 0.00 84 1016.4
20260504042020 44 253 1.0 2.0 0.00 0.00 0.00 82 1016.4
20260504041018 44 295 1.0 2.0 0.00 0.00 0.00 80 1016.5
20260504040017 44 297 1.0 2.0 0.00 0.00 0.00 77 1016.5
20260504035037 44 288 1.0 2.0 0.00 0.00 0.00 76 1016.6
20260504034017 43 67 0.0 1.0 0.00 0.00 0.00 78 1016.6
20260504033017 43 114 0.0 1.0 0.00 0.00 0.00 80 1016.6
20260504032018 43 187 1.0 2.0 0.00 0.00 0.00 81 1016.6
20260504031018 43 138 1.0 3.0 0.00 0.00 0.00 82 1016.6
20260504030018 44 303 1.0 2.0 0.00 0.00 0.00 81 1016.6
20260504025016 44 310 2.0 3.0 0.00 0.00 0.00 80 1016.7
20260504024016 45 301 1.0 2.0 0.00 0.00 0.00 77 1016.7
20260504023016 45 300 1.0 2.0 0.00 0.00 0.00 77 1016.7